Regional Weather Roundup
Issued by NWS Sioux Falls, SD

Home | Current Version | Previous Version | Text Only | Print | Product List | Glossary Off
Versions: 1 2 3 4 5 6 7 8 9 10 11 12 13 14 15 16 17 18 19 20 21 22 23 24 25 26 27 28 29 30 31 32 33 34 35 36 37 38 39 40 41 42 43 44 45 46 47 48 49 50

760
ASUS43 KFSD 071610
RWRFSD

WEATHER ROUNDUP FOR SE SOUTH DAKOTA/SW MINNESOTA/NW IOWA
NATIONAL WEATHER SERVICE SIOUX FALLS SD
1000 AM CST WED DEC 07 2016

NOTE: "FAIR" INDICATES FEW OR NO CLOUDS BELOW 12,000 FEET WITH NO
SIGNIFICANT WEATHER AND OR OBSTRUCTIONS TO VISIBILITY.


SDZ038>040-050-052>070-071700-
SOUTHEAST SOUTH DAKOTA

CITY           SKY/WX    TMP DP  RH WIND       PRES   REMARKS
BROOKINGS      FLURRIES  10   4  76 W24G31    30.16R WCI -10
CHAMBERLAIN    CLOUDY     9   1  70 NW15G24   30.32R WCI  -7
HURON          CLOUDY    12   3  67 NW21      30.27R WCI  -7
MADISON        FLURRIES  10   7  85 NW23G29   30.18R WCI -10
MITCHELL       CLOUDY    13   3  64 W17G30    30.29R WCI  -4
SIOUX FALLS    CLOUDY    13   6  74 NW24G30   30.21R WCI  -7
WINNER         PTSUNNY    7  -3  64 NW18G26   30.34R WCI -12
YANKTON        CLOUDY    12   3  67 W18G26    30.29R WCI  -5
$$

MNZ071-072-080-081-089-090-097-098-071700-
SOUTHWEST MINNESOTA

CITY           SKY/WX    TMP DP  RH WIND       PRES   REMARKS
FAIRMONT       SUNNY     14   7  73 W21G30    30.14R WCI  -4
JACKSON        SUNNY     12   5  73 W24G33    30.13R WCI  -8
LUVERNE        SUNNY     14   5  67 W23G29    30.20S WCI  -5
MARSHALL       PTSUNNY   14   6  70 W24G33    30.14R WCI  -5
MONTEVIDEO     PTSUNNY   18   7  62 NW18G26   30.13R WCI   2
PIPESTONE      MOSUNNY   12   7  79 NW21G31   30.14R WCI  -6
REDWOOD FALLS  CLOUDY    15   4  61 W23G32    30.13R WCI  -3
TRACY          SUNNY     15   8  73 W16G25    30.14R WCI  -1
WINDOM         SUNNY     14   7  73 W25G36    30.12R WCI  -5
WORTHINGTON    SUNNY     11   5  77 W29G35    30.14R WCI -11
$$

IAZ001>003-012>014-020>022-031-032-NEZ013-014-SDZ071-071700-
NORTHWEST IOWA

CITY           SKY/WX    TMP DP  RH WIND       PRES   REMARKS
CHEROKEE       CLOUDY    14   7  72 W17G23    30.23S WCI  -2
DENISON        CLOUDY    16   9  73 NW13G20   30.24R WCI   2
ESTHERVILLE    SUNNY     14   8  77 W21       30.15R WCI  -4
LE MARS        CLOUDY    16   7  67 NW20      30.26S WCI  -1
ORANGE CITY    CLOUDY    14   9  79 W21       30.22R WCI  -4
SHELDON        CLOUDY    12   7  79 W18       30.19R WCI  -5
SIOUX CITY     CLOUDY    17   6  62 NW18G26   30.29R WCI   1
SPENCER        SUNNY     14   5  67 W31G39    30.18R WCI  -7
STORM LAKE     CLOUDY    14   7  73 W23       30.20R WCI  -5
$$

ABBREVIATIONS USED IN REMARKS
   TC - TEMPERATURE IN CELSIUS
  WCI - WIND CHILL INDEX
   HX - HEAT INDEX
  VSB - VISIBILITY





USA.gov is the U.S. government's official web portal to all federal, state and local government web resources and services.